TimeCDT,TemperatureF,Dew PointF,Humidity,Sea Level PressureIn,VisibilityMPH,Wind Direction,Wind SpeedMPH,Gust SpeedMPH,PrecipitationIn,Events,Conditions,WindDirDegrees,DateUTC
12:15 AM,60.8,35.6,39,29.95,10.0,SW,8.1,-,N/A,,Clear,220,2013-03-16 05:15:00
12:35 AM,60.8,35.6,39,29.94,10.0,SSW,11.5,16.1,N/A,,Clear,210,2013-03-16 05:35:00
12:55 AM,60.8,35.6,39,29.94,10.0,SSW,10.4,-,N/A,,Clear,210,2013-03-16 05:55:00
1:15 AM,60.8,35.6,39,29.94,10.0,SSW,8.1,-,N/A,,Clear,200,2013-03-16 06:15:00
1:35 AM,59.0,35.6,42,29.94,10.0,SSW,10.4,-,N/A,,Clear,200,2013-03-16 06:35:00
1:55 AM,59.0,35.6,42,29.94,10.0,SSW,10.4,-,N/A,,Clear,200,2013-03-16 06:55:00
2:15 AM,59.0,35.6,42,29.94,10.0,SSW,8.1,-,N/A,,Clear,200,2013-03-16 07:15:00
2:35 AM,59.0,35.6,42,29.94,10.0,SSW,8.1,-,N/A,,Clear,200,2013-03-16 07:35:00
2:55 AM,59.0,35.6,42,29.93,10.0,South,9.2,-,N/A,,Clear,190,2013-03-16 07:55:00
3:15 AM,59.0,35.6,42,29.93,10.0,South,6.9,-,N/A,,Clear,190,2013-03-16 08:15:00
3:35 AM,59.0,35.6,42,29.93,10.0,South,8.1,-,N/A,,Clear,190,2013-03-16 08:35:00
3:55 AM,57.2,35.6,44,29.93,10.0,SSW,5.8,-,N/A,,Clear,200,2013-03-16 08:55:00
4:15 AM,57.2,35.6,44,29.93,10.0,SSW,8.1,-,N/A,,Clear,200,2013-03-16 09:15:00
4:35 AM,55.4,35.6,47,29.94,10.0,SSW,8.1,-,N/A,,Clear,200,2013-03-16 09:35:00
4:55 AM,55.4,35.6,47,29.94,10.0,SSW,8.1,-,N/A,,Clear,200,2013-03-16 09:55:00
5:15 AM,55.4,35.6,47,29.94,10.0,SSW,6.9,-,N/A,,Clear,200,2013-03-16 10:15:00
5:35 AM,55.4,35.6,47,29.94,10.0,South,6.9,-,N/A,,Clear,190,2013-03-16 10:35:00
5:55 AM,55.4,37.4,51,29.95,10.0,SSW,6.9,-,N/A,,Clear,210,2013-03-16 10:55:00
6:15 AM,53.6,37.4,54,29.95,10.0,SSW,6.9,-,N/A,,Clear,210,2013-03-16 11:15:00
6:35 AM,55.4,37.4,51,29.96,10.0,SSW,8.1,-,N/A,,Clear,200,2013-03-16 11:35:00
6:55 AM,53.6,37.4,54,29.96,10.0,South,9.2,-,N/A,,Clear,190,2013-03-16 11:55:00
7:15 AM,55.4,37.4,51,29.96,10.0,South,6.9,-,N/A,,Clear,180,2013-03-16 12:15:00
7:35 AM,53.6,37.4,54,29.97,10.0,South,8.1,-,N/A,,Clear,190,2013-03-16 12:35:00
7:55 AM,55.4,37.4,51,29.97,10.0,SSW,9.2,-,N/A,,Clear,200,2013-03-16 12:55:00
8:15 AM,55.4,37.4,51,29.97,10.0,SSW,12.7,-,N/A,,Clear,200,2013-03-16 13:15:00
8:35 AM,57.2,37.4,48,29.97,10.0,SSW,10.4,-,N/A,,Clear,200,2013-03-16 13:35:00
8:55 AM,59.0,37.4,45,29.97,10.0,SSW,11.5,-,N/A,,Clear,200,2013-03-16 13:55:00
9:15 AM,59.0,37.4,45,29.97,10.0,SW,11.5,17.3,N/A,,Clear,220,2013-03-16 14:15:00
9:35 AM,60.8,39.2,45,29.97,10.0,SW,15.0,18.4,N/A,,Clear,230,2013-03-16 14:35:00
9:55 AM,62.6,39.2,42,29.96,10.0,WSW,12.7,25.3,N/A,,Clear,240,2013-03-16 14:55:00
10:15 AM,64.4,41.0,42,29.96,10.0,SW,13.8,21.9,N/A,,Clear,220,2013-03-16 15:15:00
10:35 AM,64.4,41.0,42,29.95,10.0,WSW,18.4,27.6,N/A,,Clear,240,2013-03-16 15:35:00
10:55 AM,66.2,39.2,37,29.95,10.0,WSW,17.3,24.2,N/A,,Clear,250,2013-03-16 15:55:00
11:15 AM,66.2,37.4,35,29.94,10.0,SW,17.3,28.8,N/A,,Clear,230,2013-03-16 16:15:00
11:35 AM,68.0,33.8,28,29.94,10.0,WSW,15.0,26.5,N/A,,Clear,250,2013-03-16 16:35:00
11:55 AM,68.0,35.6,30,29.94,10.0,WSW,13.8,18.4,N/A,,Clear,240,2013-03-16 16:55:00
12:15 PM,69.8,33.8,27,29.93,10.0,SW,16.1,25.3,N/A,,Clear,230,2013-03-16 17:15:00
12:35 PM,69.8,33.8,27,29.93,10.0,SW,15.0,19.6,N/A,,Clear,230,2013-03-16 17:35:00
12:55 PM,71.6,32.0,23,29.92,10.0,WSW,19.6,26.5,N/A,,Clear,250,2013-03-16 17:55:00
1:15 PM,71.6,32.0,23,29.92,10.0,WSW,16.1,25.3,N/A,,Clear,240,2013-03-16 18:15:00
1:55 PM,71.6,33.8,25,29.91,10.0,SW,16.1,21.9,N/A,,Clear,230,2013-03-16 18:55:00
2:15 PM,71.6,33.8,25,29.90,10.0,SW,16.1,23.0,N/A,,Clear,230,2013-03-16 19:15:00
2:35 PM,71.6,35.6,27,29.89,10.0,SW,19.6,26.5,N/A,,Clear,230,2013-03-16 19:35:00
2:55 PM,71.6,35.6,27,29.89,10.0,SW,19.6,25.3,N/A,,Clear,220,2013-03-16 19:55:00
3:15 PM,71.6,35.6,27,29.89,10.0,SW,18.4,25.3,N/A,,Clear,230,2013-03-16 20:15:00
3:35 PM,73.4,35.6,25,29.88,10.0,SW,13.8,23.0,N/A,,Clear,220,2013-03-16 20:35:00
3:55 PM,73.4,35.6,25,29.87,10.0,SW,16.1,24.2,N/A,,Clear,220,2013-03-16 20:55:00
4:15 PM,73.4,35.6,25,29.87,10.0,SW,17.3,23.0,N/A,,Clear,230,2013-03-16 21:15:00
4:35 PM,73.4,35.6,25,29.87,10.0,SW,17.3,21.9,N/A,,Clear,230,2013-03-16 21:35:00
4:55 PM,73.4,35.6,25,29.87,10.0,WSW,17.3,24.2,N/A,,Clear,240,2013-03-16 21:55:00
5:15 PM,73.4,35.6,25,29.87,10.0,WSW,16.1,20.7,N/A,,Clear,250,2013-03-16 22:15:00
5:35 PM,73.4,35.6,25,29.87,10.0,WSW,11.5,16.1,N/A,,Clear,250,2013-03-16 22:35:00
5:55 PM,71.6,35.6,27,29.87,10.0,WSW,13.8,18.4,N/A,,Clear,240,2013-03-16 22:55:00
6:15 PM,71.6,37.4,29,29.87,10.0,WSW,9.2,-,N/A,,Clear,250,2013-03-16 23:15:00
6:35 PM,69.8,37.4,31,29.88,10.0,WSW,6.9,-,N/A,,Clear,250,2013-03-16 23:35:00
6:55 PM,69.8,37.4,31,29.88,10.0,WSW,8.1,-,N/A,,Clear,240,2013-03-16 23:55:00
7:15 PM,64.4,41.0,42,29.89,10.0,WSW,5.8,-,N/A,,Clear,240,2013-03-17 00:15:00
7:35 PM,68.0,39.2,35,29.89,10.0,WSW,5.8,-,N/A,,Clear,250,2013-03-17 00:35:00
7:55 PM,64.4,41.0,42,29.90,10.0,WSW,4.6,-,N/A,,Clear,240,2013-03-17 00:55:00
8:15 PM,62.6,41.0,45,29.91,10.0,SW,3.5,-,N/A,,Clear,230,2013-03-17 01:15:00
8:35 PM,60.8,41.0,48,29.91,10.0,Calm,Calm,-,N/A,,Clear,0,2013-03-17 01:35:00
8:55 PM,59.0,42.8,55,29.92,10.0,Calm,Calm,-,N/A,,Clear,0,2013-03-17 01:55:00
9:15 PM,59.0,44.6,59,29.93,10.0,Calm,Calm,-,N/A,,Clear,0,2013-03-17 02:15:00
9:35 PM,55.4,42.8,63,29.93,10.0,Calm,Calm,-,N/A,,Clear,0,2013-03-17 02:35:00
9:55 PM,55.4,44.6,67,29.93,10.0,Calm,Calm,-,N/A,,Clear,0,2013-03-17 02:55:00
10:15 PM,55.4,42.8,63,29.94,10.0,Calm,Calm,-,N/A,,Clear,0,2013-03-17 03:15:00
10:35 PM,53.6,44.6,72,29.94,10.0,Calm,Calm,-,N/A,,Clear,0,2013-03-17 03:35:00
10:55 PM,53.6,44.6,72,29.94,10.0,Calm,Calm,-,N/A,,Clear,0,2013-03-17 03:55:00
11:15 PM,53.6,46.4,77,29.94,10.0,Calm,Calm,-,N/A,,Clear,0,2013-03-17 04:15:00
11:35 PM,51.8,46.4,82,29.94,10.0,Calm,Calm,-,N/A,,Clear,0,2013-03-17 04:35:00
11:55 PM,53.6,44.6,72,29.94,10.0,Calm,Calm,-,N/A,,Clear,0,2013-03-17 04:55:00